TimeCDT,TemperatureF,Dew PointF,Humidity,Sea Level PressureIn,VisibilityMPH,Wind Direction,Wind SpeedMPH,Gust SpeedMPH,PrecipitationIn,Events,Conditions,WindDirDegrees,DateUTC
12:56 AM,60.1,59.0,96,29.82,9.0,East,15.0,-,0.07,Rain,Light Rain,90,2013-05-17 05:56:00
1:43 AM,60.8,59.0,94,29.83,10.0,ESE,8.1,-,0.02,Rain,Light Rain,110,2013-05-17 06:43:00
1:56 AM,61.0,59.0,93,29.81,10.0,ESE,8.1,-,0.02,Rain,Light Rain,110,2013-05-17 06:56:00
2:56 AM,60.1,59.0,96,29.81,10.0,ESE,8.1,-,0.00,,Clear,120,2013-05-17 07:56:00
3:56 AM,61.0,59.0,93,29.80,10.0,SE,6.9,-,N/A,,Partly Cloudy,130,2013-05-17 08:56:00
4:56 AM,61.0,57.9,90,29.82,10.0,ESE,6.9,-,N/A,,Overcast,120,2013-05-17 09:56:00
5:56 AM,61.0,57.9,90,29.84,10.0,SE,9.2,-,N/A,,Partly Cloudy,130,2013-05-17 10:56:00
6:56 AM,61.0,59.0,93,29.85,8.0,SE,8.1,-,N/A,,Scattered Clouds,130,2013-05-17 11:56:00
7:56 AM,63.0,60.1,90,29.84,10.0,SSE,12.7,-,N/A,,Scattered Clouds,150,2013-05-17 12:56:00
8:56 AM,66.9,62.1,84,29.84,10.0,SSE,5.8,-,N/A,,Scattered Clouds,160,2013-05-17 13:56:00
9:56 AM,70.0,63.0,78,29.84,10.0,South,9.2,-,N/A,,Scattered Clouds,170,2013-05-17 14:56:00
10:56 AM,73.9,64.9,73,29.83,10.0,South,13.8,-,N/A,,Scattered Clouds,190,2013-05-17 15:56:00
11:56 AM,75.0,64.9,71,29.82,10.0,South,12.7,-,N/A,,Partly Cloudy,170,2013-05-17 16:56:00
12:56 PM,78.1,63.0,60,29.81,10.0,SSW,10.4,-,N/A,,Scattered Clouds,200,2013-05-17 17:56:00
1:56 PM,78.1,64.0,62,29.81,10.0,South,9.2,-,N/A,,Partly Cloudy,180,2013-05-17 18:56:00
2:56 PM,80.1,61.0,52,29.80,10.0,South,11.5,18.4,N/A,,Partly Cloudy,180,2013-05-17 19:56:00
3:56 PM,81.0,62.1,52,29.78,10.0,South,13.8,-,N/A,,Partly Cloudy,190,2013-05-17 20:56:00
4:56 PM,82.0,63.0,52,29.76,10.0,South,11.5,18.4,N/A,,Partly Cloudy,190,2013-05-17 21:56:00
5:56 PM,82.9,60.1,46,29.76,10.0,SSW,11.5,-,N/A,,Partly Cloudy,210,2013-05-17 22:56:00
6:56 PM,82.9,60.1,46,29.75,10.0,SE,12.7,-,N/A,,Partly Cloudy,140,2013-05-17 23:56:00
7:56 PM,81.0,60.1,49,29.76,10.0,SE,13.8,-,N/A,,Partly Cloudy,140,2013-05-18 00:56:00
8:56 PM,78.1,61.0,56,29.78,10.0,SE,16.1,24.2,N/A,,Partly Cloudy,140,2013-05-18 01:56:00
9:56 PM,75.9,60.1,58,29.79,10.0,SSE,18.4,24.2,N/A,,Partly Cloudy,150,2013-05-18 02:56:00
10:56 PM,73.9,60.1,62,29.80,10.0,SSE,12.7,20.7,N/A,,Partly Cloudy,150,2013-05-18 03:56:00
11:56 PM,72.0,60.1,66,29.80,10.0,SSE,13.8,-,N/A,,Clear,160,2013-05-18 04:56:00